Location: ???????
(54.6339°N, 39.4245°E)
Time: 16:46:20
(UTC+00:00)

Sich 1 - Pass Details

Date: 19 May 2025
Orbit: 574 x 603 km, 82.5° (Epoch: 21 June)

Event Time Altitude Azimuth Distance (km) Brightness Sun altitude
Rises 20:53:41 0° 345° (NNW) 2,843 8.2 -15.2°
Reaches altitude 10° 20:55:56 10° 340° (NNW) 1,931 6.9 -15.2°
Maximum altitude 21:00:05 52° 265° (W) 736 3.4 -15.3°
Enters shadow 21:02:14 25° 200° (SSW) 1,185 4.0 -15.3°
